Location: Friaudour
(46.0460°N, 1.2873°E)
Time: 15:15:54
(UTC+00:00)

Spot 4 Rocket - Pass Details

Date: 28 October 2020
Orbit: 776 x 781 km, 98.7° (Epoch: 29 November)

Event Time Altitude Azimuth Distance (km) Brightness Sun altitude
Rises 04:42:40 0° 1° (N) 3,270 7.3 -19.2°
Reaches altitude 10° 04:45:36 10° 344° (NNW) 2,338 6.3 -18.7°
Enters shadow 04:47:38 17° 323° (NW) 1,901 5.7 -18.3°
